Regional Weather Roundup
Issued by NWS

Home | Current Version | Previous Version | Text Only | Print | Product List | Glossary On
Versions: 1 2 3 4 5 6 7 8 9 10 11 12 13 14 15 16 17 18 19 20 21 22 23 24 25 26 27 28 29 30 31 32 33 34 35 36 37 38 39 40 41 42 43 44 45 46 47 48 49 50
000
ASUS43 KDTX 230101
RWRMI
MICHIGAN HOURLY REGIONAL WEATHER ROUNDUP
NATIONAL WEATHER SERVICE DETROIT/PONTIAC MI
900 PM EDT TUE JUL 22 2014

NOTE: "FAIR" INDICATES FEW OR NO CLOUDS BELOW 12,000 FEET WITH NO
SIGNIFICANT WEATHER AND/OR OBSTRUCTION TO VISIBILITY.

MIZ047>049-052>055-059>063-066>070-074>076-081>083-230200-
SOUTHEAST LOWER MICHIGAN

CITY           SKY/WX    TMP DP  RH WIND       PRES   REMARKS
ADRIAN         CLEAR     83  66  56 SW9G18    29.98R
ALMA           CLOUDY    82  67  60 SW7       29.93S
ANN ARBOR      CLEAR     81  65  58 SW7       29.96R
BAD AXE        CLOUDY    82  67  61 SW8       29.91S
CARO           CLOUDY    83  68  60 SW8       29.92S
DETROIT CITY   CLEAR     88  65  46 SW12G20   29.94R HX  90
DETROIT        PTCLDY    84  66  54 S13       29.96R
FLINT          MOCLDY    83  67  58 SW9       29.94S
GROSSE ILE     CLEAR     84  66  54 SW9       29.94S
HILLSDALE      CLEAR     81  66  60 SW6       30.00S
HOWELL         MOCLDY    80  66  62 SW6       29.96S

CITY           SKY/WX    TMP DP  RH WIND       PRES   REMARKS
JACKSON        PTCLDY    81  68  64 SW7       29.98R
LAMBERTVILLE   CLEAR     84  64  51 SW6       29.98R
LANSING        CLOUDY    82  67  60 SW9       29.96S
LAPEER         FAIR      82  66  58 W5        29.94R
MASON          PTCLDY    81  67  63 SW7       29.96S
MONROE         CLEAR     84  64  51 SW7       29.95R
MT. CLEMENS    CLEAR     85  66  52 SW12      29.92R
PONTIAC        PTCLDY    83  65  54 SW9       29.95S
PORT HOPE        N/A     83  66  56 VRB6      29.87S
PORT HURON     CLEAR     81  66  61 S7        29.92F
TRI CITIES     CLOUDY    84  68  58 SW9       29.92S
TROY           CLEAR     85  63  47 SW10      29.95S
SAGINAW HB     CLOUDY    82  64  54 SW7       29.91S
$$
MIZ043>046-050>051-056>058-064>065-071>073-077>080-230200-
SOUTHWEST LOWER MICHIGAN

CITY           SKY/WX    TMP DP  RH WIND       PRES   REMARKS
BATTLE CREEK   CLOUDY    82  68  62 SW9       29.97F
BENTON HARBOR  CLOUDY    82  70  66 S8        29.95S
BIG RAPIDS     PTCLDY    78  67  68 SW8       29.91F
COLDWATER      MOCLDY    81  69  66 SW3       29.98F
FREMONT        MOCLDY    80  68  68 SW7       29.92S
HOLLAND        CLEAR     83  71  67 SW12      29.94S
GRAND RAPIDS   CLOUDY    84  71  65 SW9       29.94S
IONIA          CLOUDY    82  68  62 SW6       29.94R
KALAMAZOO      MOCLDY    82  69  64 SW9       29.96F
LUDINGTON      MOCLDY    72  70  93 CALM      29.92F FOG
MARSHALL       MOCLDY    81  68  64 SW5       29.97S
MOUNT PLEASANT CLOUDY    82  68  63 SW8       29.90F
MUSKEGON       MOCLDY    78  69  73 SW10      29.92S
SOUTH HAVEN    MOCLDY    83  72  69 SW7       29.95R
$$
MIZ016>042-230200-
NORTHERN LOWER MICHIGAN

CITY           SKY/WX    TMP DP  RH WIND       PRES   REMARKS
ALPENA         MOCLDY    81  70  69 SW5       29.84F
BEAVER ISLAND  CLEAR     64  59  82 NW12G18   29.95R
BELLAIRE       PTCLDY    73  66  77 NW3       29.92R
CADILLAC       CLOUDY    76  70  81 SW5       29.91F
CHARLEVOIX     CLOUDY    68  62  81 NW10G16   29.98R
FRANKFORT      MOCLDY    71  64  77 W3        29.93S
GAYLORD        PTCLDY    73  66  78 NW10G21   29.92S
GRAYLING       HVY RAIN  74  70  87 NW9G31    29.95R
HARBOR SPRINGS CLOUDY    68  64  86 W3        29.93R FOG
HOUGHTON LAKE  MOCLDY    78  69  73 SW10      29.91F
MANISTEE       CLOUDY    77  66  69 NW10      29.94R
OSCODA         PTCLDY    82  65  55 SW10G16   29.86S
PELLSTON       PTCLDY    70  61  73 NW15G25   29.92R
ROGERS CITY    PTCLDY    73  69  85 NW10      29.87R
TRAVERSE CITY  MOCLDY    79  66  64 NW13      29.90R
$$
MIZ007>008-015-230200-
EASTERN UPPER MICHIGAN

CITY           SKY/WX    TMP DP  RH WIND       PRES   REMARKS
KINROSS        MOCLDY    64  57  77 W14       29.89R
MACKINAC ISLAN CLEAR     66  61  84 NW6       29.89R
NEWBERRY       CLOUDY    58  55  88 NW16G32   29.93R
S. S. MARIE    CLOUDY    61  55  81 W14G22    29.88S
MUNISING         N/A     60  52  74 NW20G35   30.02R
$$
MIZ004>006-011>014-085-230200-
CENTRAL UPPER MICHIGAN

CITY           SKY/WX    TMP DP  RH WIND       PRES   REMARKS
MANISTIQUE     CLOUDY    63  57  80 NW18G30   29.96R
ESCANABA       CLOUDY    70  55  60 N15G29    30.00R
MENOMINEE      PTCLDY    73  61  64 N17G25    29.96R
SAWYER-GWINN   CLOUDY    64  55  72 N16G25    30.04R
$$
MIZ001>003-009>011-084-230200-
WESTERN UPPER MICHIGAN

CITY           SKY/WX    TMP DP  RH WIND       PRES   REMARKS
IRON MOUNTAIN  MOCLDY    65  57  75 N18G29    30.05R
HOUGHTON       CLOUDY    62  54  74 N12       30.07R
COPPER HARBOR    N/A     59  53  80 N13       30.05R
$$

ABBREVIATIONS USED IN REMARKS
   TC - TEMPERATURE IN CELSIUS
  WCI - WIND CHILL INDEX
   HX - HEAT INDEX
  VSB - VISIBILITY



USA.gov is the U.S. government's official web portal to all federal, state and local government web resources and services.